CZ-11 DEB (44325 NORAD) Tracking and Keplerian Element Data

This shows tracking and keplerian element data for the satellite.

Feedback or suggestion? Click here.




ElementValue
Catalog44325
NameCZ-11 DEB
Epoch Orbit410
Epoch Day185.9095284
Epoch Year2019
RAAN134.4569
Inclination44.9113
Eccentricity0.0247037
Argument of Perigee115.01
Mean Anonmoly247.6642
Mean Motion15.42764605
Decay Rate0.00077005
L11 44325U 19032M 19185.90952840 .00077005 10091-4 54388-3 0 9999
L22 44325 44.9113 134.4569 0247037 115.0100 247.6642 15.42764605 4101

Live tracking and technical data element details for CZ-11 DEB (NORAD 44325). CZ-11 DEB can be tracked NOW for your location showing map with azimuth and elevation plus other details from your city location.

Track the satellite on the map from your city or location and see movement details for azimuth, elevation, latitude, longitude, range, height, and movement on the map or in text.







IsCatalogInMostPopularTable: catalog: 44325, numindb: 11
Update: records affected: 1



GetName: 44325 CZ-11 DEB

Hit Count: updated at: Wed, 21 Aug 2019 00:19:56 GMT